Hourly Data Report for October 26, 2016

All times are specified in Local Standard Time (LST). Add 1 hour to adjust for Daylight Saving Time where and when it is observed.

MONCTON INTL A
NEW BRUNSWICK

46°06'44.000" N
64°40'43.000" W
70.70 m
8103201
71705
YQM

Download Data

Hourly Data (October 2016)
Hourly Data Report for October 26, 2016
Temp Definition
°C
Dew Point Temp Definition
°C
Rel Hum Definition
%
Wind Dir Definition
10's deg

Wind Spd Definition
km/h
Visibility Definition
km
Stn Press Definition
kPa
Hmdx Definition


Wind Chill Definition


Weather Definition


TIME
00:00 Legend Double Dagger 4.5 3.8 95 29 7 16.1 100.55     Rain Showers
01:00 Legend Double Dagger 4.7 4.3 97 35 13 8.1 100.61     Rain Showers,Fog
02:00 Legend Double Dagger 5.3 4.4 94 36 19 12.9 100.67     Rain Showers
03:00 Legend Double Dagger 5.2 4.3 94 35 21 12.9 100.71     Rain Showers
04:00 Legend Double Dagger 5.0 4.1 94 32 21 12.9 100.73     Rain Showers
05:00 Legend Double Dagger 4.9 4.2 95 33 19 24.1 100.80     Rain
06:00 Legend Double Dagger 4.8 4.2 96 32 14 24.1 100.88     LegendNANA
07:00 Legend Double Dagger 5.0 4.4 96 34 16 24.1 100.95     LegendNANA
08:00 Legend Double Dagger 5.4 4.7 95 34 14 24.1 101.05     Cloudy
09:00 Legend Double Dagger 6.3 4.6 89 36 23 24.1 101.09     LegendNANA
10:00 Legend Double Dagger 6.6 4.8 88 1 32 24.1 101.13     Rain Showers
11:00 Legend Double Dagger 6.3 4.6 89 1 32 11.3 101.18     Rain Showers
12:00 Legend Double Dagger 6.3 4.8 90 36 30 12.9 101.22     Rain Showers
13:00 Legend Double Dagger 5.9 4.2 89 1 34 11.3 101.24     Rain Showers
14:00 Legend Double Dagger 5.8 4.5 91 1 23 11.3 101.30     Rain Showers
15:00 Legend Double Dagger 5.3 4.1 92 1 29 9.7 101.38     Rain Showers,Fog
16:00 Legend Double Dagger 5.1 3.8 91 1 29 12.9 101.43     Rain Showers
17:00 Legend Double Dagger 4.8 3.5 91 1 25 12.9 101.52     Rain Showers
18:00 Legend Double Dagger 4.4 3.2 92 1 21 19.3 101.60     Rain Showers
19:00 Legend Double Dagger 4.3 2.7 89 1 28 19.3 101.63     Rain Showers
20:00 Legend Double Dagger 4.3 2.7 89 1 24 24.1 101.70     Rain Showers
21:00 Legend Double Dagger 4.1 2.8 91 36 25 24.1 101.73     Rain Showers
22:00 Legend Double Dagger 3.8 2.6 92 1 23 12.9 101.81     Rain Showers
23:00 Legend Double Dagger 3.8 2.2 89 1 22 16.1 101.83     Rain Showers

Notes on Data Quality.

Legend

  • E = Estimated
  • M = Missing
  • NA = Not Available
  • ‡ = Partner data that is not subject to review by the National Climate Archives
Date modified: